[[{"header":{"parameterUnit":"m.s-1","parameterCategory":1,"la1":30.2991,"la2":30.254,"lo1":-89.0895,"lo2":-89.0444,"dy":0.0017,"dx":0.0017,"nx":28,"ny":28,"refTime":"2025-08-10T03:00:00:Z","depth":0,"parameterNumber":2,"parameterNumberName":"U-component_of_WINDS"},"data":[0,0,0,0,0,0,0,0,0,0,0,0,0,0,0,0,0,0,0,0,0,0,0,0,0,0,0,0,0,0,0,0,0,0,0,0,0,0,0,0,0,0,0,0,0,0,0,0,0,0,0,0,0,0,0,0,0,0,-2.251,-2.2509,0,-2.2454,-2.2454,-2.2453,-2.2355,-2.2354,-2.2352,-2.235,-2.2294,-2.2294,-2.2294,0,0,0,0,0,0,0,0,0,0,0,0,0,-2.2533,-2.2533,-2.251,-2.2509,-2.2508,-2.2454,-2.2454,-2.2453,-2.2356,-2.2354,-2.2351,-2.2349,-2.2294,-2.2294,-2.2294,0,0,0,0,0,0,0,0,0,0,0,0,0,-2.2505,-2.2534,-2.251,-2.2453,-2.2448,-2.2455,-2.2454,-2.2453,-2.2356,-2.2354,-2.2351,-2.2348,-2.2294,-2.2294,-2.2294,-2.2352,0,0,-2.2295,-2.2295,0,0,0,0,0,0,0,0,-2.2507,-2.2504,-2.2462,-2.2457,-2.2451,-2.2409,-2.2441,-2.2419,-2.2357,-2.2391,-2.235,-2.2347,-2.2334,-2.2331,-2.2327,-2.2349,-2.2347,-2.2295,-2.2295,-2.2296,-2.2296,0,0,0,0,0,0,0,-2.2509,-2.2506,-2.2488,-2.2462,-2.2455,-2.2431,-2.2424,-2.2437,-2.2379,-2.2388,-2.2381,-2.2375,-2.2331,-2.2327,-2.2325,-2.2346,-2.2295,-2.2296,-2.2296,-2.2296,-2.2416,-2.2419,0,0,0,0,0,0,-2.2519,-2.2509,-2.249,-2.2486,-2.2473,-2.2433,-2.2425,-2.2425,-2.2379,-2.2369,-2.2378,-2.2371,-2.2328,-2.2325,-2.2322,-2.2389,-2.2296,-2.2296,-2.2296,-2.2413,-2.2416,-2.242,0,0,0,0,0,0,-2.252,-2.2518,-2.2492,-2.2495,-2.249,-2.2436,-2.2437,-2.2426,-2.2422,-2.2371,-2.236,-2.2384,-2.2325,-2.2322,-2.2346,-2.2386,-2.2296,-2.2296,-2.2409,-2.2414,-2.2418,-2.2522,0,0,0,0,0,0,-2.2521,-2.2519,-2.254,-2.2497,-2.249,-2.2516,-2.2439,-2.2427,-2.2422,-2.2413,-2.2374,-2.2365,-2.2323,-2.2346,-2.2346,-2.2385,-2.2297,-2.2405,-2.2411,-2.2417,-2.2514,-2.2529,-2.2542,0,0,0,0,0,-2.2522,-2.2571,-2.2541,-2.254,-2.2515,-2.2518,-2.2515,-2.2465,-2.2426,-2.2447,-2.2415,-2.2366,-2.2381,-2.2349,-2.2349,-2.2388,-2.2403,-2.241,-2.2416,-2.2508,-2.2526,-2.2541,0,0,0,0,0,0,-2.262,-2.2564,-2.2531,-2.2567,-2.2548,-2.2502,-2.2527,-2.2485,-2.2477,-2.2469,-2.2407,-2.24,-2.2432,-2.2412,-2.2377,-2.2442,-2.2384,-2.2391,-2.2455,-2.2471,-2.2485,-2.249,-2.2297,0,0,0,0,0,-2.2645,-2.2652,-2.2603,-2.2639,-2.2632,-2.2581,-2.2581,-2.2544,-2.2522,-2.2514,-2.2483,-2.2465,-2.2465,-2.2467,-2.2464,-2.2511,-2.2502,-2.2537,-2.2551,-2.2562,-2.257,-2.2596,-2.2612,-2.2442,-2.2442,-2.2441,0,0,-2.2698,-2.2669,-2.2677,-2.2658,-2.264,-2.2649,-2.2575,-2.2588,-2.2595,-2.2516,-2.2537,-2.2515,-2.2489,-2.2526,-2.254,-2.251,-2.2615,-2.2571,-2.2581,-2.2582,-2.2605,-2.2621,-2.2635,-2.2446,-2.2445,-2.2445,0,0,-2.28,-2.2778,-2.2807,-2.279,-2.2763,-2.2729,-2.2737,-2.2697,-2.2679,-2.27,-2.2642,-2.2649,-2.2651,-2.2636,-2.2629,-2.2729,-2.2685,-2.2729,-2.2801,-2.2828,-2.2841,-2.2853,-2.2891,-2.2905,-2.2737,-2.2737,-2.2737,0,-2.287,-2.2882,-2.2827,-2.2844,-2.2839,-2.2769,-2.2799,-2.2785,-2.2759,-2.2758,-2.2724,-2.2726,-2.2704,-2.2738,-2.2762,-2.2758,-2.2766,-2.2734,-2.2843,-2.2854,-2.2865,-2.29,-2.2915,-2.2743,-2.2742,-2.2741,-2.2741,0,-2.297,-2.2979,-2.3006,-2.2984,-2.2981,-2.3005,-2.2955,-2.2959,-2.2923,-2.2894,-2.2917,-2.2888,-2.288,-2.2885,-2.285,-2.2915,-2.2897,-2.2854,-2.2795,-2.2888,-2.2921,-2.2933,-2.2751,-2.2749,-2.2747,-2.2746,0,0,-2.3131,-2.308,-2.3091,-2.3081,-2.3047,-2.3054,-2.3075,-2.3067,-2.3074,-2.3058,-2.3076,-2.308,-2.3041,-2.3033,-2.2995,-2.3018,-2.3103,-2.2973,-2.2971,-2.3,-2.3176,-2.3211,-2.3227,-2.3073,-2.3075,-2.3077,-2.3179,0,-2.3228,-2.3261,-2.3214,-2.3259,-2.3268,-2.3203,-2.3221,-2.3204,-2.3177,-2.3182,-2.3152,-2.3157,-2.3103,-2.3099,-2.3118,-2.3088,-2.3138,-2.308,-2.3091,-2.3092,-2.3102,-2.3244,-2.3279,-2.3377,-2.3191,-2.3193,-2.3195,0,-2.3345,-2.3337,-2.3383,-2.3349,-2.3351,-2.3369,-2.3359,-2.3364,-2.3343,-2.3322,-2.3315,-2.3271,-2.3291,-2.3233,-2.3261,-2.3223,-2.3225,-2.3211,-2.3213,-2.3214,-2.3151,-2.3251,-2.3406,-2.3422,-2.3214,-2.3212,-2.3211,0,-2.3462,-2.3462,-2.349,-2.3483,-2.3443,-2.3458,-2.3442,-2.3418,-2.3418,-2.341,-2.3409,-2.3404,-2.3401,-2.3398,-2.3355,-2.3316,-2.339,-2.3327,-2.3375,-2.3376,-2.3395,-2.3395,-2.3556,-2.3392,-2.3392,-2.3392,-2.3391,0,-2.3576,-2.3607,-2.3542,-2.356,-2.3594,-2.354,-2.3575,-2.3553,-2.3533,-2.3546,-2.3488,-2.3502,-2.3442,-2.345,-2.3416,-2.3446,-2.3445,-2.343,-2.3421,-2.3437,-2.3439,-2.3438,-2.3431,-2.3395,-2.3395,-2.3394,-2.3393,0,-2.3713,-2.367,-2.3697,-2.3658,-2.3649,-2.3676,-2.3642,-2.3658,-2.3628,-2.3646,-2.3647,-2.36,-2.3607,-2.3563,-2.356,-2.3538,-2.3586,-2.3564,-2.3593,-2.3588,-2.3639,-2.3636,-2.3807,-2.3828,-2.3649,-2.3651,-2.3652,0,-2.3789,-2.3812,-2.3776,-2.3781,-2.3768,-2.3776,-2.3776,-2.3724,-2.3726,-2.3706,-2.3725,-2.3726,-2.3725,-2.3739,-2.3706,-2.3705,-2.3684,-2.3744,-2.3683,-2.37,-2.3688,-2.3689,-2.3692,-2.3757,-2.376,-2.3761,-2.3763,0,-2.3931,-2.3909,-2.3911,-2.3907,-2.3908,-2.3902,-2.3891,-2.3899,-2.3843,-2.3848,-2.3855,-2.3854,-2.3853,-2.3857,-2.385,-2.3834,-2.3791,-2.3782,-2.3794,-2.3811,-2.3829,-2.3823,-2.3631,-2.3779,-2.3777,-2.3776,-2.3775,-2.3775,-2.4041,-2.406,-2.4038,-2.4043,-2.403,-2.4023,-2.4036,-2.4009,-2.4013,-2.4009,-2.3978,-2.3991,-2.3971,-2.3957,-2.3946,-2.3957,-2.3928,-2.3944,-2.3949,-2.3954,-2.3965,-2.3825,-2.3955,-2.3954,-2.3954,-2.3953,-2.3953,0,-2.4183,-2.4166,-2.417,-2.4159,-2.4164,-2.4121,-2.4109,-2.4116,-2.4128,-2.4113,-2.4114,-2.4123,-2.4127,-2.4095,-2.4095,-2.411,-2.409,-2.4112,-2.4111,-2.4109,-2.3989,-2.398,-2.4128,-2.4128,-2.4128,-2.4128,-2.4128,-2.4128,-2.4257,-2.4287,-2.4263,-2.4288,-2.427,-2.4283,-2.428,-2.4273,-2.4262,-2.4275,-2.4278,-2.4257,-2.4236,-2.4235,-2.4237,-2.4228,-2.4232,-2.4261,-2.4246,-2.4134,-2.4117,-2.4101,-2.4093,-2.4262,-2.4262,-2.4365,-2.4366,-2.4367]},{"header":{"parameterUnit":"m.s-1","parameterCategory":1,"la1":30.2991,"la2":30.254,"lo1":-89.0895,"lo2":-89.0444,"dy":0.0017,"dx":0.0017,"nx":28,"ny":28,"refTime":"2025-08-10T03:00:00:Z","depth":0,"parameterNumber":3,"parameterNumberName":"V-component_of_WINDS"},"data":[0,0,0,0,0,0,0,0,0,0,0,0,0,0,0,0,0,0,0,0,0,0,0,0,0,0,0,0,0,0,0,0,0,0,0,0,0,0,0,0,0,0,0,0,0,0,0,0,0,0,0,0,0,0,0,0,0,0,0.3504,0.3505,0,0.3532,0.3532,0.3532,0.3578,0.3579,0.358,0.3581,0.3606,0.3606,0.3606,0,0,0,0,0,0,0,0,0,0,0,0,0,0.3488,0.3488,0.3504,0.3505,0.3505,0.3532,0.3532,0.3532,0.3578,0.3579,0.358,0.3581,0.3606,0.3606,0.3606,0,0,0,0,0,0,0,0,0,0,0,0,0,0.3503,0.3488,0.3504,0.3531,0.3534,0.3532,0.3532,0.3533,0.3578,0.3579,0.3581,0.3582,0.3606,0.3606,0.3606,0.3579,0,0,0.3605,0.3605,0,0,0,0,0,0,0,0,0.3502,0.3504,0.3527,0.3529,0.3532,0.3553,0.3536,0.3548,0.3578,0.3561,0.3581,0.3582,0.3587,0.3589,0.3591,0.358,0.3581,0.3605,0.3605,0.3605,0.3605,0,0,0,0,0,0,0,0.3501,0.3503,0.3515,0.3527,0.353,0.3541,0.3544,0.3538,0.3567,0.3563,0.3566,0.3569,0.3589,0.3591,0.3592,0.3582,0.3605,0.3605,0.3605,0.3605,0.3547,0.3545,0,0,0,0,0,0,0.3497,0.3502,0.3514,0.3516,0.352,0.354,0.3544,0.3545,0.3567,0.3571,0.3568,0.3571,0.3591,0.3592,0.3593,0.356,0.3605,0.3605,0.3605,0.3548,0.3546,0.3545,0,0,0,0,0,0,0.3496,0.3497,0.3513,0.351,0.3513,0.3539,0.354,0.3545,0.3547,0.3571,0.3576,0.3565,0.3592,0.3593,0.3582,0.3562,0.3605,0.3605,0.355,0.3548,0.3546,0.3496,0,0,0,0,0,0,0.3496,0.3497,0.3488,0.3509,0.3513,0.3502,0.3539,0.3544,0.3547,0.3551,0.3569,0.3573,0.3593,0.3582,0.3581,0.3562,0.3605,0.3552,0.3549,0.3546,0.3499,0.3492,0.3486,0,0,0,0,0,0.3495,0.3473,0.3487,0.3488,0.3502,0.3501,0.3503,0.3527,0.3545,0.3535,0.355,0.3573,0.3565,0.358,0.358,0.3561,0.3553,0.355,0.3547,0.3502,0.3493,0.3486,0,0,0,0,0,0,0.3448,0.3476,0.3492,0.3477,0.3486,0.3509,0.3497,0.3517,0.3521,0.3525,0.3553,0.3557,0.3541,0.355,0.3567,0.3534,0.3562,0.3559,0.3528,0.352,0.3514,0.351,0.3604,0,0,0,0,0,0.3436,0.3434,0.3458,0.3442,0.3446,0.3471,0.3471,0.3489,0.3499,0.3503,0.3517,0.3526,0.3525,0.3524,0.3524,0.3502,0.3504,0.3488,0.3481,0.3476,0.3472,0.3457,0.3449,0.3534,0.3534,0.3534,0,0,0.3411,0.3426,0.3423,0.3433,0.3442,0.3438,0.3474,0.3468,0.3464,0.3502,0.3491,0.3502,0.3513,0.3495,0.3488,0.3502,0.3449,0.3472,0.3467,0.3466,0.3453,0.3445,0.3438,0.3532,0.3532,0.3533,0,0,0.3362,0.3375,0.3361,0.3369,0.3383,0.3399,0.3396,0.3415,0.3424,0.3414,0.3441,0.3437,0.3436,0.3441,0.3444,0.3396,0.3416,0.3396,0.336,0.3346,0.3339,0.3333,0.3312,0.3305,0.3392,0.3392,0.3392,0,0.3328,0.3324,0.3351,0.3343,0.3345,0.338,0.3365,0.3372,0.3385,0.3385,0.3402,0.3399,0.3409,0.3391,0.3379,0.3382,0.3377,0.3392,0.3338,0.3332,0.3327,0.3308,0.33,0.3389,0.3389,0.339,0.339,0,0.328,0.3276,0.3264,0.3275,0.3276,0.3265,0.3289,0.3287,0.3304,0.3318,0.3306,0.332,0.3322,0.332,0.3337,0.3304,0.3312,0.3333,0.3361,0.3316,0.3298,0.3291,0.3385,0.3386,0.3387,0.3388,0,0,0.3201,0.3227,0.3222,0.3226,0.3243,0.324,0.323,0.3233,0.3229,0.3237,0.3226,0.3224,0.3243,0.3246,0.3264,0.3252,0.3209,0.3274,0.3275,0.3258,0.3169,0.315,0.3141,0.3223,0.3222,0.3221,0.3167,0,0.3153,0.3137,0.3161,0.3138,0.3133,0.3166,0.3156,0.3165,0.3177,0.3174,0.3188,0.3184,0.3212,0.3213,0.3203,0.3216,0.319,0.3221,0.3211,0.321,0.3204,0.3133,0.3114,0.3062,0.316,0.3159,0.3158,0,0.3095,0.3099,0.3076,0.3092,0.3091,0.3082,0.3085,0.3083,0.3092,0.3102,0.3105,0.3127,0.3115,0.3145,0.3128,0.3148,0.3146,0.3152,0.315,0.3148,0.3179,0.3125,0.3046,0.3037,0.3148,0.3149,0.315,0,0.3035,0.3036,0.3021,0.3024,0.3044,0.3036,0.3044,0.3055,0.3054,0.3057,0.3057,0.3059,0.3059,0.3059,0.3079,0.3099,0.3059,0.3091,0.3064,0.3063,0.3051,0.3051,0.2968,0.3056,0.3056,0.3056,0.3056,0,0.2977,0.2961,0.2994,0.2984,0.2966,0.2994,0.2975,0.2986,0.2995,0.2987,0.3016,0.3008,0.3037,0.3031,0.3048,0.3029,0.303,0.3036,0.304,0.3031,0.303,0.3028,0.303,0.3054,0.3054,0.3055,0.3055,0,0.2906,0.2929,0.2914,0.2934,0.2938,0.2923,0.294,0.2931,0.2946,0.2935,0.2934,0.2956,0.2951,0.2972,0.2971,0.2981,0.2953,0.2965,0.2949,0.2952,0.2922,0.2923,0.2832,0.282,0.2919,0.2918,0.2917,0,0.2866,0.2854,0.2872,0.2869,0.2875,0.287,0.287,0.2896,0.2894,0.2903,0.2892,0.2889,0.2888,0.2878,0.2893,0.2891,0.2901,0.2869,0.29,0.2891,0.2896,0.2894,0.2892,0.2861,0.286,0.2859,0.2858,0,0.2791,0.2802,0.2801,0.2802,0.2801,0.2803,0.2807,0.2803,0.2831,0.2827,0.2822,0.2821,0.2819,0.2814,0.2816,0.2822,0.2843,0.2848,0.2841,0.2831,0.282,0.2822,0.2927,0.2849,0.285,0.2851,0.2851,0.2852,0.2732,0.2722,0.2732,0.2729,0.2735,0.2738,0.2729,0.2743,0.2739,0.2739,0.2756,0.2746,0.2754,0.2758,0.2763,0.2755,0.2769,0.276,0.2757,0.2753,0.2747,0.2825,0.2755,0.2756,0.2756,0.2756,0.2756,0,0.2655,0.2664,0.266,0.2665,0.2661,0.2684,0.2689,0.2684,0.2676,0.2682,0.268,0.2672,0.2668,0.2683,0.268,0.2671,0.268,0.2669,0.2668,0.2668,0.2736,0.274,0.2661,0.2661,0.2661,0.2661,0.2661,0.2661,0.2615,0.2597,0.2609,0.2594,0.2603,0.2594,0.2594,0.2596,0.2601,0.2591,0.2588,0.2598,0.2607,0.2605,0.2601,0.2606,0.2601,0.2586,0.2593,0.2655,0.2664,0.2673,0.2677,0.2586,0.2586,0.2526,0.2525,0.2525]}]]